Simultaneous Nadir Overpasses (SNOs) Predictions

Prediction of SNOs between GOES-15 and TERRA Satellite Orbit:

Table of predicted SNOs for the next 14.0 days since TLE Epoch: 3/21/2015
Index Date Time (GOES-15) GOES-15 Lat,Lon TERRA Lat,Lon Distance(km) Time Diff (sec)
1 03/21/2015 07:43:18 -0.04,-134.98 -0.62,-137.84 324.30 80
2 03/23/2015 07:28:27 -0.04,-134.91 -0.04,-134.87 4.01 80
3 03/25/2015 07:16:16 -0.03,-134.83 0.56,-131.91 331.55 80
4 03/25/2015 19:37:32 0.03,-134.83 0.51,-137.08 255.27 80
5 03/27/2015 19:28:01 0.03,-134.75 -0.12,-134.12 72.19 80
6 03/29/2015 19:15:49 0.03,-134.67 -0.72,-131.15 399.54 80
7 03/30/2015 07:37:13 -0.02,-134.63 -0.40,-136.34 194.49 80
8 04/01/2015 07:22:21 -0.02,-134.54 0.23,-133.38 132.61 80
9 04/01/2015 19:43:35
